TimeIST,TemperatureF,Dew PointF,Humidity,Sea Level PressureIn,VisibilityMPH,Wind Direction,Wind SpeedMPH,Gust SpeedMPH,PrecipitationIn,Events,Conditions,WindDirDegrees,DateUTC
12:00 AM,50.0,50.0,100,29.95,1.6,East,20.7,-,N/A,Rain,Light Rain,100,2012-10-07 23:00:00
12:30 AM,51.8,51.8,100,29.92,1.1,East,21.9,-,N/A,Rain,Light Rain,100,2012-10-07 23:30:00
1:00 AM,51,51,100,29.94,1,East,22.4,,,Rain,Light Rain,100,2012-10-08 00:00:00
1:00 AM,51.8,51.8,100,29.92,1.1,East,21.9,-,N/A,Rain,Light Rain,100,2012-10-08 00:00:00
1:30 AM,51.8,51.8,100,29.92,1.1,East,19.6,-,N/A,Rain,Light Rain,90,2012-10-08 00:30:00
2:00 AM,51.8,51.8,100,29.89,1.0,East,24.2,-,N/A,Rain,Light Rain,100,2012-10-08 01:00:00
2:30 AM,51.8,51.8,100,29.89,1.9,East,19.6,-,N/A,Rain,Light Rain,90,2012-10-08 01:30:00
3:00 AM,51.8,51.8,100,29.89,1.0,East,19.6,-,N/A,Rain,Light Rain,90,2012-10-08 02:00:00
3:30 AM,51.8,51.8,100,29.89,1.0,East,18.4,-,N/A,Rain,Light Rain,90,2012-10-08 02:30:00
4:00 AM,53.6,53.6,100,29.89,1.0,East,17.3,-,N/A,Rain,Light Rain,90,2012-10-08 03:00:00
4:30 AM,-9999,-9999,N/A,29.86,0.3,East,15.0,-,N/A,,Overcast,100,2012-10-08 03:30:00
5:00 AM,53.6,53.6,100,29.86,1.6,East,16.1,-,N/A,Rain,Light Rain,90,2012-10-08 04:00:00
5:30 AM,53.6,53.6,100,29.86,0.3,East,16.1,-,N/A,Fog-Rain,Light Rain,90,2012-10-08 04:30:00
6:00 AM,53.6,53.6,100,29.86,1.1,East,16.1,-,N/A,Rain,Light Rain,90,2012-10-08 05:00:00
6:30 AM,53.6,53.6,100,29.86,1.1,East,16.1,-,N/A,Rain,Light Rain,90,2012-10-08 05:30:00
7:00 AM,53,53,100,29.87,1,East,15.7,,,Rain,Light Rain,80,2012-10-08 06:00:00
7:00 AM,53.6,53.6,100,29.86,1.0,East,16.1,-,N/A,Rain,Light Rain,80,2012-10-08 06:00:00
7:30 AM,53.6,53.6,100,29.86,1.0,East,16.1,-,N/A,Rain,Light Rain,80,2012-10-08 06:30:00
8:00 AM,53.6,53.6,100,29.86,1.2,East,15.0,-,N/A,Rain,Light Rain,90,2012-10-08 07:00:00
8:30 AM,51.8,51.8,100,29.86,1.6,East,15.0,-,N/A,Rain,Light Rain,80,2012-10-08 07:30:00
9:00 AM,51.8,51.8,100,29.89,2.5,East,15.0,-,N/A,,Light Drizzle,80,2012-10-08 08:00:00
9:30 AM,51.8,51.8,100,29.89,2.5,East,15.0,-,N/A,,Light Drizzle,80,2012-10-08 08:30:00
10:00 AM,51.8,51.8,100,29.89,5.6,East,16.1,-,N/A,,Light Drizzle,80,2012-10-08 09:00:00
10:30 AM,51.8,51.8,100,29.89,5.6,East,16.1,-,N/A,,Overcast,80,2012-10-08 09:30:00
11:00 AM,51.8,51.8,100,29.89,6.2,ENE,13.8,-,N/A,,Light Drizzle,70,2012-10-08 10:00:00
11:30 AM,51.8,51.8,100,29.89,6.2,East,13.8,-,N/A,,Overcast,80,2012-10-08 10:30:00
12:00 PM,51.8,51.8,100,29.89,4.3,East,13.8,-,N/A,,Light Drizzle,80,2012-10-08 11:00:00
12:30 PM,51.8,51.8,100,29.89,5.0,East,13.8,-,N/A,,Light Drizzle,80,2012-10-08 11:30:00
1:00 PM,52,52,100,29.92,4,ENE,15.7,,,Rain,Light Drizzle,70,2012-10-08 12:00:00
1:00 PM,51.8,51.8,100,29.89,3.7,ENE,15.0,-,N/A,,Light Drizzle,70,2012-10-08 12:00:00
1:30 PM,51.8,51.8,100,29.89,3.7,ENE,13.8,-,N/A,,Light Drizzle,60,2012-10-08 12:30:00
2:00 PM,51.8,51.8,100,29.92,2.5,ENE,12.7,-,N/A,,Light Drizzle,70,2012-10-08 13:00:00
2:30 PM,51.8,51.8,100,29.89,1.9,ENE,13.8,-,N/A,Rain,Light Rain,60,2012-10-08 13:30:00
3:00 PM,51.8,51.8,100,29.89,2.5,East,13.8,-,N/A,Rain,Light Rain,80,2012-10-08 14:00:00
3:30 PM,51.8,51.8,100,29.89,1.6,East,12.7,-,N/A,Rain,Light Rain,80,2012-10-08 14:30:00
4:00 PM,51.8,51.8,100,29.89,3.7,ENE,11.5,-,N/A,Rain,Light Rain,60,2012-10-08 15:00:00
4:30 PM,51.8,51.8,100,29.89,5.6,ENE,13.8,-,N/A,,Light Drizzle,60,2012-10-08 15:30:00
5:00 PM,51.8,51.8,100,29.92,6.2,ENE,11.5,-,N/A,,Overcast,60,2012-10-08 16:00:00
5:30 PM,51.8,51.8,100,29.92,6.2,ENE,13.8,-,N/A,,Mostly Cloudy,70,2012-10-08 16:30:00
6:00 PM,51.8,51.8,100,29.92,6.2,East,12.7,-,N/A,,Mostly Cloudy,90,2012-10-08 17:00:00
6:30 PM,51.8,51.8,100,29.92,6.2,East,12.7,-,N/A,,Mostly Cloudy,80,2012-10-08 17:30:00
7:00 PM,51,51,100,29.94,12,ENE,11.2,,,,Partly Cloudy,70,2012-10-08 18:00:00
7:00 PM,51.8,51.8,100,29.92,6.2,ENE,10.4,-,N/A,,Mostly Cloudy,70,2012-10-08 18:00:00
7:30 PM,51.8,50.0,94,29.92,6.2,ENE,10.4,-,N/A,,Mostly Cloudy,70,2012-10-08 18:30:00
8:00 PM,50.0,50.0,100,29.95,6.2,East,8.1,-,N/A,,Overcast,80,2012-10-08 19:00:00
8:30 PM,51.8,50.0,94,29.95,6.2,ENE,8.1,-,N/A,,Overcast,70,2012-10-08 19:30:00
9:00 PM,51.8,50.0,94,29.95,6.2,East,8.1,-,N/A,,Overcast,80,2012-10-08 20:00:00
9:30 PM,51.8,50.0,94,29.95,6.2,East,10.4,-,N/A,,Overcast,80,2012-10-08 20:30:00
10:00 PM,51.8,50.0,94,29.95,6.2,ENE,11.5,-,N/A,,Overcast,70,2012-10-08 21:00:00
10:30 PM,51.8,50.0,94,29.95,6.2,NE,10.4,-,N/A,,Overcast,50,2012-10-08 21:30:00
11:00 PM,51.8,50.0,94,29.95,5.6,ENE,9.2,-,N/A,,Overcast,60,2012-10-08 22:00:00
11:30 PM,51.8,50.0,94,29.95,5.6,East,9.2,-,N/A,,Overcast,80,2012-10-08 22:30:00